Time,TemperatureF,DewpointF,PressureIn,WindDirection,WindDirectionDegrees,WindSpeedMPH,WindSpeedGustMPH,Humidity,HourlyPrecipIn,Conditions,Clouds,dailyrainin,SoftwareType,DateUTC
2013-07-23 00:00:00,66.4,48.2,29.76,North,0,0.0,0.0,52,0.00,RA,OVC,0.00,WeatherDisplay:10.37,2013-07-23 05:00:00,
2013-07-23 00:05:00,66.6,48.9,29.76,North,0,0.0,0.0,53,0.00,RA,OVC,0.00,WeatherDisplay:10.37,2013-07-23 05:05:00,
2013-07-23 00:10:00,66.6,48.9,29.76,North,0,0.0,0.0,53,0.00,CLR,OVC,0.00,WeatherDisplay:10.37,2013-07-23 05:10:00,
2013-07-23 00:15:00,66.6,48.9,29.76,North,0,0.0,0.0,53,0.00,CLR,OVC,0.00,WeatherDisplay:10.37,2013-07-23 05:15:00,
2013-07-23 00:20:00,66.6,49.4,29.76,North,0,0.0,0.0,54,0.00,CLR,OVC,0.00,WeatherDisplay:10.37,2013-07-23 05:20:00,
2013-07-23 00:25:00,66.6,49.4,29.76,North,0,0.0,0.0,54,0.00,CLR,OVC,0.00,WeatherDisplay:10.37,2013-07-23 05:25:00,
2013-07-23 00:30:00,66.6,49.9,29.76,North,0,0.0,0.0,55,0.00,CLR,OVC,0.00,WeatherDisplay:10.37,2013-07-23 05:30:00,
2013-07-23 00:35:00,66.6,49.9,29.76,North,0,0.0,0.0,55,0.00,CLR,OVC,0.00,WeatherDisplay:10.37,2013-07-23 05:35:00,
2013-07-23 00:40:00,66.6,50.4,29.76,North,0,0.0,0.0,56,0.00,CLR,OVC,0.00,WeatherDisplay:10.37,2013-07-23 05:40:00,
2013-07-23 00:45:00,66.6,50.8,29.79,North,0,0.0,0.0,57,0.00,CLR,OVC,0.00,WeatherDisplay:10.37,2013-07-23 05:45:00,
2013-07-23 00:50:00,66.6,50.8,29.79,North,0,0.0,0.0,57,0.00,CLR,OVC,0.00,WeatherDisplay:10.37,2013-07-23 05:50:00,
2013-07-23 00:55:00,66.7,51.0,29.79,North,0,0.0,0.0,57,0.00,CLR,OVC,0.00,WeatherDisplay:10.37,2013-07-23 05:55:00,
2013-07-23 01:00:00,66.7,51.0,29.76,North,0,0.0,0.0,57,0.00,CLR,OVC,0.00,WeatherDisplay:10.37,2013-07-23 06:00:00,
2013-07-23 01:05:00,66.7,51.5,29.76,North,0,0.0,0.0,58,0.00,CLR,OVC,0.00,WeatherDisplay:10.37,2013-07-23 06:05:00,
2013-07-23 01:10:00,66.9,51.7,29.76,North,0,0.0,0.0,58,0.00,CLR,OVC,0.00,WeatherDisplay:10.37,2013-07-23 06:10:00,
2013-07-23 01:15:00,66.9,51.7,29.79,North,0,0.0,0.0,58,0.00,CLR,OVC,0.00,WeatherDisplay:10.37,2013-07-23 06:15:00,
2013-07-23 01:20:00,66.9,51.7,29.79,North,0,0.0,0.0,58,0.00,CLR,OVC,0.00,WeatherDisplay:10.37,2013-07-23 06:20:00,
2013-07-23 01:25:00,66.9,52.1,29.79,North,0,0.0,0.0,59,0.00,CLR,OVC,0.00,WeatherDisplay:10.37,2013-07-23 06:25:00,
2013-07-23 01:30:00,66.7,52.0,29.79,North,0,0.0,0.0,59,0.00,CLR,OVC,0.00,WeatherDisplay:10.37,2013-07-23 06:30:00,
2013-07-23 01:35:00,66.7,52.0,29.79,North,0,0.0,0.0,59,0.00,CLR,OVC,0.00,WeatherDisplay:10.37,2013-07-23 06:35:00,
2013-07-23 01:40:00,66.6,51.8,29.79,North,0,0.0,0.0,59,0.00,CLR,OVC,0.00,WeatherDisplay:10.37,2013-07-23 06:40:00,
2013-07-23 01:45:00,66.6,51.8,29.79,North,0,0.0,0.0,59,0.00,CLR,OVC,0.00,WeatherDisplay:10.37,2013-07-23 06:45:00,
2013-07-23 01:50:00,66.4,51.6,29.79,North,0,0.0,0.0,59,0.00,CLR,OVC,0.00,WeatherDisplay:10.37,2013-07-23 06:50:00,
2013-07-23 01:55:00,66.4,52.1,29.79,North,0,0.0,0.0,60,0.00,CLR,OVC,0.00,WeatherDisplay:10.37,2013-07-23 06:55:00,
2013-07-23 02:00:00,66.4,52.1,29.76,North,0,0.0,0.0,60,0.00,CLR,OVC,0.00,WeatherDisplay:10.37,2013-07-23 07:00:00,
2013-07-23 02:05:00,66.2,51.9,29.76,North,0,0.0,0.0,60,0.00,CLR,OVC,0.00,WeatherDisplay:10.37,2013-07-23 07:05:00,
2013-07-23 02:10:00,66.2,51.9,29.76,North,0,0.0,0.0,60,0.00,CLR,OVC,0.00,WeatherDisplay:10.37,2013-07-23 07:10:00,
2013-07-23 02:15:00,66.2,51.9,29.76,North,0,0.0,0.0,60,0.00,CLR,OVC,0.00,WeatherDisplay:10.37,2013-07-23 07:15:00,
2013-07-23 02:20:00,66.2,52.3,29.76,North,0,0.0,0.0,61,0.00,CLR,OVC,0.00,WeatherDisplay:10.37,2013-07-23 07:20:00,
2013-07-23 02:25:00,66.0,52.2,29.76,North,0,0.0,0.0,61,0.00,CLR,OVC,0.00,WeatherDisplay:10.37,2013-07-23 07:25:00,
2013-07-23 02:30:00,66.0,52.2,29.76,North,0,0.0,0.0,61,0.00,CLR,OVC,0.00,WeatherDisplay:10.37,2013-07-23 07:30:00,
2013-07-23 02:35:00,65.8,52.0,29.76,North,0,0.0,0.0,61,0.00,CLR,OVC,0.00,WeatherDisplay:10.37,2013-07-23 07:35:00,
2013-07-23 02:40:00,65.8,52.5,29.76,North,0,0.0,0.0,62,0.00,CLR,OVC,0.00,WeatherDisplay:10.37,2013-07-23 07:40:00,
2013-07-23 02:45:00,65.8,52.5,29.76,North,0,0.0,0.0,62,0.00,CLR,OVC,0.00,WeatherDisplay:10.37,2013-07-23 07:45:00,
2013-07-23 02:50:00,65.8,52.5,29.76,North,0,0.0,0.0,62,0.00,CLR,OVC,0.00,WeatherDisplay:10.37,2013-07-23 07:50:00,
2013-07-23 02:55:00,65.8,52.5,29.76,North,0,0.0,0.0,62,0.00,CLR,OVC,0.00,WeatherDisplay:10.37,2013-07-23 07:55:00,
2013-07-23 03:00:00,65.7,52.3,29.76,North,0,0.0,0.0,62,0.00,CLR,OVC,0.00,WeatherDisplay:10.37,2013-07-23 08:00:00,
2013-07-23 03:05:00,65.7,52.3,29.76,North,0,0.0,0.0,62,0.00,CLR,OVC,0.00,WeatherDisplay:10.37,2013-07-23 08:05:00,
2013-07-23 03:10:00,65.7,52.7,29.76,North,0,0.0,0.0,63,0.00,CLR,OVC,0.00,WeatherDisplay:10.37,2013-07-23 08:10:00,
2013-07-23 03:15:00,65.8,52.9,29.76,North,0,0.0,0.0,63,0.00,CLR,OVC,0.00,WeatherDisplay:10.37,2013-07-23 08:15:00,
2013-07-23 03:20:00,65.8,52.9,29.76,North,0,0.0,0.0,63,0.00,CLR,OVC,0.00,WeatherDisplay:10.37,2013-07-23 08:20:00,
2013-07-23 03:25:00,66.0,53.5,29.76,North,0,0.0,0.0,64,0.00,CLR,OVC,0.00,WeatherDisplay:10.37,2013-07-23 08:25:00,
2013-07-23 03:30:00,66.0,53.5,29.76,North,0,0.0,0.0,64,0.00,CLR,OVC,0.00,WeatherDisplay:10.37,2013-07-23 08:30:00,
2013-07-23 03:35:00,66.2,53.2,29.76,North,0,0.0,0.0,63,0.00,CLR,OVC,0.00,WeatherDisplay:10.37,2013-07-23 08:35:00,
2013-07-23 03:40:00,66.2,53.2,29.76,North,0,0.0,0.0,63,0.00,CLR,OVC,0.00,WeatherDisplay:10.37,2013-07-23 08:40:00,
2013-07-23 03:45:00,66.0,53.1,29.76,North,0,0.0,0.0,63,0.00,CLR,OVC,0.00,WeatherDisplay:10.37,2013-07-23 08:45:00,
2013-07-23 03:50:00,66.0,53.1,29.76,North,0,0.0,0.0,63,0.00,CLR,OVC,0.00,WeatherDisplay:10.37,2013-07-23 08:50:00,
2013-07-23 03:55:00,65.8,52.9,29.76,North,0,0.0,0.0,63,0.00,CLR,OVC,0.00,WeatherDisplay:10.37,2013-07-23 08:55:00,
2013-07-23 04:00:00,65.7,52.7,29.76,North,0,0.0,0.0,63,0.00,CLR,OVC,0.00,WeatherDisplay:10.37,2013-07-23 09:00:00,
2013-07-23 04:05:00,65.7,52.7,29.76,North,0,0.0,0.0,63,0.00,CLR,OVC,0.00,WeatherDisplay:10.37,2013-07-23 09:05:00,
2013-07-23 04:11:00,65.5,52.5,29.76,North,0,0.0,0.0,63,0.00,CLR,OVC,0.00,WeatherDisplay:10.37,2013-07-23 09:11:00,
2013-07-23 04:16:00,65.3,52.4,29.76,North,0,0.0,0.0,63,0.00,CLR,OVC,0.00,WeatherDisplay:10.37,2013-07-23 09:16:00,
2013-07-23 04:21:00,65.3,52.8,29.76,North,0,0.0,0.0,64,0.00,CLR,OVC,0.00,WeatherDisplay:10.37,2013-07-23 09:21:00,
2013-07-23 04:26:00,65.1,52.6,29.76,North,0,0.0,0.0,64,0.00,CLR,OVC,0.00,WeatherDisplay:10.37,2013-07-23 09:26:00,
2013-07-23 04:31:00,65.1,52.6,29.76,North,0,0.0,0.0,64,0.00,CLR,OVC,0.00,WeatherDisplay:10.37,2013-07-23 09:31:00,
2013-07-23 04:36:00,65.1,52.6,29.76,North,0,0.0,0.0,64,0.00,CLR,OVC,0.00,WeatherDisplay:10.37,2013-07-23 09:36:00,
2013-07-23 04:41:00,65.1,53.1,29.76,North,0,0.0,0.0,65,0.00,CLR,OVC,0.00,WeatherDisplay:10.37,2013-07-23 09:41:00,
2013-07-23 04:46:00,65.3,53.2,29.79,North,0,0.0,0.0,65,0.00,CLR,OVC,0.00,WeatherDisplay:10.37,2013-07-23 09:46:00,
2013-07-23 04:51:00,65.3,53.2,29.79,North,0,0.0,0.0,65,0.00,CLR,OVC,0.00,WeatherDisplay:10.37,2013-07-23 09:51:00,
2013-07-23 04:56:00,65.5,53.4,29.79,North,0,0.0,0.0,65,0.00,CLR,OVC,0.00,WeatherDisplay:10.37,2013-07-23 09:56:00,
2013-07-23 05:01:00,65.5,53.4,29.79,North,0,0.0,0.0,65,0.00,CLR,OVC,0.00,WeatherDisplay:10.37,2013-07-23 10:01:00,
2013-07-23 05:06:00,65.7,53.6,29.79,North,0,0.0,0.0,65,0.00,FEW,OVC,0.00,WeatherDisplay:10.37,2013-07-23 10:06:00,
2013-07-23 05:11:00,65.7,53.6,29.79,North,0,0.0,0.0,65,0.00,FEW,OVC,0.00,WeatherDisplay:10.37,2013-07-23 10:11:00,
2013-07-23 05:16:00,65.7,53.6,29.79,North,0,0.0,0.0,65,0.00,FEW,OVC,0.00,WeatherDisplay:10.37,2013-07-23 10:16:00,
2013-07-23 05:21:00,65.7,53.6,29.79,North,0,0.0,0.0,65,0.00,FEW,OVC,0.00,WeatherDisplay:10.37,2013-07-23 10:21:00,
2013-07-23 05:26:00,65.7,54.0,29.79,North,0,0.0,0.0,66,0.00,FEW,OVC,0.00,WeatherDisplay:10.37,2013-07-23 10:26:00,
2013-07-23 05:31:00,65.7,54.0,29.79,North,0,0.0,0.0,66,0.00,FEW,OVC,0.00,WeatherDisplay:10.37,2013-07-23 10:31:00,
2013-07-23 05:36:00,65.7,54.0,29.79,North,0,0.0,0.0,66,0.00,FEW,OVC,0.00,WeatherDisplay:10.37,2013-07-23 10:36:00,
2013-07-23 05:41:00,65.8,54.2,29.79,North,0,0.0,0.0,66,0.00,FEW,OVC,0.00,WeatherDisplay:10.37,2013-07-23 10:41:00,
2013-07-23 05:46:00,65.8,54.2,29.79,North,0,0.0,0.0,66,0.00,FEW,OVC,0.00,WeatherDisplay:10.37,2013-07-23 10:46:00,
2013-07-23 05:51:00,65.7,54.0,29.79,North,0,0.0,0.0,66,0.00,FEW,OVC,0.00,WeatherDisplay:10.37,2013-07-23 10:51:00,
2013-07-23 05:56:00,65.7,54.0,29.79,North,0,0.0,0.0,66,0.00,FEW,OVC,0.00,WeatherDisplay:10.37,2013-07-23 10:56:00,
2013-07-23 06:01:00,65.7,54.0,29.79,North,0,0.0,0.0,66,0.00,FEW,OVC,0.00,WeatherDisplay:10.37,2013-07-23 11:01:00,
2013-07-23 06:06:00,65.8,54.2,29.79,North,0,0.0,0.0,66,0.00,FEW,OVC,0.00,WeatherDisplay:10.37,2013-07-23 11:06:00,
2013-07-23 06:11:00,65.8,54.2,29.79,North,0,0.0,0.0,66,0.00,FEW,OVC,0.00,WeatherDisplay:10.37,2013-07-23 11:11:00,
2013-07-23 06:16:00,66.0,54.7,29.79,North,0,0.0,0.0,67,0.00,FEW,OVC,0.00,WeatherDisplay:10.37,2013-07-23 11:16:00,
2013-07-23 06:21:00,66.0,54.7,29.79,North,0,0.0,0.0,67,0.00,FEW,OVC,0.00,WeatherDisplay:10.37,2013-07-23 11:21:00,
2013-07-23 06:26:00,66.2,54.9,29.79,North,0,0.0,0.0,67,0.00,FEW,OVC,0.00,WeatherDisplay:10.37,2013-07-23 11:26:00,
2013-07-23 06:31:00,66.4,55.1,29.79,North,0,0.0,0.0,67,0.00,FEW,OVC,0.00,WeatherDisplay:10.37,2013-07-23 11:31:00,
2013-07-23 06:36:00,66.4,55.1,29.79,North,0,0.0,0.0,67,0.00,FEW,OVC,0.00,WeatherDisplay:10.37,2013-07-23 11:36:00,
2013-07-23 06:41:00,66.4,55.1,29.79,North,0,0.0,0.0,67,0.00,FEW,OVC,0.00,WeatherDisplay:10.37,2013-07-23 11:41:00,
2013-07-23 06:46:00,66.6,55.3,29.79,North,0,0.0,0.0,67,0.00,FEW,OVC,0.00,WeatherDisplay:10.37,2013-07-23 11:46:00,
2013-07-23 06:51:00,66.6,55.3,29.79,North,0,0.0,0.0,67,0.00,FEW,OVC,0.00,WeatherDisplay:10.37,2013-07-23 11:51:00,
2013-07-23 06:56:00,66.6,55.3,29.79,North,0,0.0,0.0,67,0.00,FEW,OVC,0.00,WeatherDisplay:10.37,2013-07-23 11:56:00,
2013-07-23 07:01:00,66.7,55.4,29.79,North,0,0.0,0.0,67,0.00,FEW,OVC,0.00,WeatherDisplay:10.37,2013-07-23 12:01:00,
2013-07-23 07:06:00,66.9,55.6,29.79,North,0,0.0,0.0,67,0.00,FEW,OVC,0.00,WeatherDisplay:10.37,2013-07-23 12:06:00,
2013-07-23 07:11:00,66.7,55.4,29.79,North,0,0.0,0.0,67,0.00,FEW,OVC,0.00,WeatherDisplay:10.37,2013-07-23 12:11:00,
2013-07-23 07:16:00,66.7,55.4,29.79,North,0,0.0,0.0,67,0.00,FEW,OVC,0.00,WeatherDisplay:10.37,2013-07-23 12:16:00,
2013-07-23 07:21:00,66.9,56.0,29.79,North,0,0.0,0.0,68,0.00,FEW,OVC,0.00,WeatherDisplay:10.37,2013-07-23 12:21:00,
2013-07-23 07:26:00,66.9,56.0,29.79,North,0,0.0,0.0,68,0.00,FEW,OVC,0.00,WeatherDisplay:10.37,2013-07-23 12:26:00,
2013-07-23 07:31:00,67.1,56.2,29.82,North,0,0.0,0.0,68,0.00,FEW,OVC,0.00,WeatherDisplay:10.37,2013-07-23 12:31:00,
2013-07-23 07:36:00,67.3,56.4,29.82,North,0,0.0,0.0,68,0.00,FEW,OVC,0.00,WeatherDisplay:10.37,2013-07-23 12:36:00,
2013-07-23 07:41:00,67.5,56.9,29.82,North,0,0.0,0.0,69,0.00,FEW,OVC,0.00,WeatherDisplay:10.37,2013-07-23 12:41:00,
2013-07-23 07:46:00,67.6,57.1,29.82,North,0,0.0,0.0,69,0.00,FEW,OVC,0.00,WeatherDisplay:10.37,2013-07-23 12:46:00,
2013-07-23 07:51:00,67.5,56.5,29.82,North,0,0.0,0.0,68,0.00,FEW,OVC,0.00,WeatherDisplay:10.37,2013-07-23 12:51:00,
2013-07-23 07:56:00,67.5,56.5,29.82,North,0,0.0,0.0,68,0.00,FEW,OVC,0.00,WeatherDisplay:10.37,2013-07-23 12:56:00,
2013-07-23 08:01:00,67.5,56.9,29.82,North,0,0.0,0.0,69,0.00,CLR,OVC,0.00,WeatherDisplay:10.37,2013-07-23 13:01:00,
2013-07-23 08:06:00,67.5,56.9,29.82,North,0,0.0,0.0,69,0.00,CLR,OVC,0.00,WeatherDisplay:10.37,2013-07-23 13:06:00,
2013-07-23 08:11:00,67.6,57.1,29.82,North,0,0.0,0.0,69,0.00,CLR,OVC,0.00,WeatherDisplay:10.37,2013-07-23 13:11:00,
2013-07-23 08:16:00,68.0,57.4,29.82,North,0,0.0,0.0,69,0.00,CLR,OVC,0.00,WeatherDisplay:10.37,2013-07-23 13:16:00,
2013-07-23 08:21:00,68.2,57.6,29.82,North,0,0.0,0.0,69,0.00,CLR,OVC,0.00,WeatherDisplay:10.37,2013-07-23 13:21:00,
2013-07-23 08:26:00,68.4,57.8,29.82,North,0,0.0,0.0,69,0.00,CLR,OVC,0.00,WeatherDisplay:10.37,2013-07-23 13:26:00,
2013-07-23 08:31:00,68.5,57.6,29.82,North,0,0.0,0.0,68,0.00,CLR,OVC,0.00,WeatherDisplay:10.37,2013-07-23 13:31:00,
2013-07-23 08:36:00,68.5,57.1,29.82,North,0,0.0,0.0,67,0.00,CLR,OVC,0.00,WeatherDisplay:10.37,2013-07-23 13:36:00,
2013-07-23 08:41:00,68.9,56.6,29.82,North,0,0.0,0.0,65,0.00,CLR,OVC,0.00,WeatherDisplay:10.37,2013-07-23 13:41:00,
2013-07-23 08:46:00,69.1,56.4,29.85,North,0,0.0,0.0,64,0.00,CLR,OVC,0.00,WeatherDisplay:10.37,2013-07-23 13:46:00,
2013-07-23 08:51:00,69.3,55.7,29.85,North,0,0.0,0.0,62,0.00,CLR,OVC,0.00,WeatherDisplay:10.37,2013-07-23 13:51:00,
2013-07-23 08:56:00,69.4,54.5,29.85,North,0,0.0,0.0,59,0.00,CLR,OVC,0.00,WeatherDisplay:10.37,2013-07-23 13:56:00,
2013-07-23 09:01:00,69.6,53.2,29.85,North,0,0.0,0.0,56,0.00,CLR,OVC,0.00,WeatherDisplay:10.37,2013-07-23 14:01:00,
2013-07-23 09:06:00,69.8,51.9,29.85,North,0,0.0,0.0,53,0.00,CLR,OVC,0.00,WeatherDisplay:10.37,2013-07-23 14:06:00,
2013-07-23 09:11:00,70.0,50.5,29.85,North,0,0.0,0.0,50,0.00,CLR,OVC,0.00,WeatherDisplay:10.37,2013-07-23 14:11:00,
2013-07-23 09:16:00,70.3,48.6,29.85,North,0,0.0,0.0,46,0.00,CLR,OVC,0.00,WeatherDisplay:10.37,2013-07-23 14:16:00,
2013-07-23 09:21:00,70.5,46.9,29.85,North,0,0.0,0.0,43,0.00,CLR,OVC,0.00,WeatherDisplay:10.37,2013-07-23 14:21:00,
2013-07-23 09:26:00,70.7,45.2,29.85,North,0,0.0,0.0,40,0.00,CLR,OVC,0.00,WeatherDisplay:10.37,2013-07-23 14:26:00,
2013-07-23 09:31:00,70.9,43.3,29.85,North,0,0.0,0.0,37,0.00,CLR,OVC,0.00,WeatherDisplay:10.37,2013-07-23 14:31:00,
2013-07-23 09:36:00,71.2,42.2,29.85,North,0,0.0,0.0,35,0.00,CLR,OVC,0.00,WeatherDisplay:10.37,2013-07-23 14:36:00,
2013-07-23 09:41:00,71.4,40.8,29.85,North,0,0.0,0.0,33,0.00,CLR,OVC,0.00,WeatherDisplay:10.37,2013-07-23 14:41:00,
2013-07-23 09:46:00,71.4,40.0,29.85,North,0,0.0,0.0,32,0.00,CLR,OVC,0.00,WeatherDisplay:10.37,2013-07-23 14:46:00,
2013-07-23 09:51:00,72.0,40.5,29.85,North,0,0.0,0.0,32,0.00,CLR,OVC,0.00,WeatherDisplay:10.37,2013-07-23 14:51:00,
2013-07-23 09:56:00,72.0,39.7,29.85,North,0,0.0,0.0,31,0.00,CLR,OVC,0.00,WeatherDisplay:10.37,2013-07-23 14:56:00,
2013-07-23 10:01:00,72.1,38.1,29.88,North,0,0.0,0.0,29,0.00,CLR,OVC,0.00,WeatherDisplay:10.37,2013-07-23 15:01:00,
2013-07-23 10:06:00,72.1,37.2,29.88,North,0,0.0,0.0,28,0.00,CLR,OVC,0.00,WeatherDisplay:10.37,2013-07-23 15:06:00,
2013-07-23 10:11:00,72.5,37.5,29.88,North,0,0.0,0.0,28,0.00,CLR,OVC,0.00,WeatherDisplay:10.37,2013-07-23 15:11:00,
2013-07-23 10:16:00,72.7,35.8,29.88,North,0,0.0,0.0,26,0.00,CLR,OVC,0.00,WeatherDisplay:10.37,2013-07-23 15:16:00,
2013-07-23 10:21:00,72.9,35.0,29.88,North,0,0.0,0.0,25,0.00,CLR,OVC,0.00,WeatherDisplay:10.37,2013-07-23 15:21:00,
2013-07-23 10:26:00,73.0,35.1,29.88,North,0,0.0,0.0,25,0.00,CLR,OVC,0.00,WeatherDisplay:10.37,2013-07-23 15:26:00,
2013-07-23 10:31:00,73.0,34.1,29.88,North,0,0.0,0.0,24,0.00,CLR,OVC,0.00,WeatherDisplay:10.37,2013-07-23 15:31:00,
2013-07-23 10:36:00,73.0,34.1,29.88,North,0,0.0,0.0,24,0.00,CLR,OVC,0.00,WeatherDisplay:10.37,2013-07-23 15:36:00,
2013-07-23 10:41:00,73.4,34.4,29.88,North,0,0.0,0.0,24,0.00,CLR,OVC,0.00,WeatherDisplay:10.37,2013-07-23 15:41:00,
2013-07-23 10:46:00,73.8,34.7,29.88,North,0,0.0,0.0,24,0.00,CLR,OVC,0.00,WeatherDisplay:10.37,2013-07-23 15:46:00,
2013-07-23 10:51:00,73.9,33.8,29.88,North,0,0.0,0.0,23,0.00,CLR,OVC,0.00,WeatherDisplay:10.37,2013-07-23 15:51:00,
2013-07-23 10:56:00,74.5,33.1,29.88,North,0,0.0,0.0,22,0.00,CLR,OVC,0.00,WeatherDisplay:10.37,2013-07-23 15:56:00,
2013-07-23 11:01:00,74.8,32.3,29.88,North,0,0.0,0.0,21,0.00,FEW,OVC,0.00,WeatherDisplay:10.37,2013-07-23 16:01:00,
2013-07-23 11:06:00,75.2,32.6,29.88,North,0,0.0,0.0,21,0.00,FEW,OVC,0.00,WeatherDisplay:10.37,2013-07-23 16:06:00,
2013-07-23 11:11:00,75.2,31.3,29.88,North,0,0.0,0.0,20,0.00,FEW,OVC,0.00,WeatherDisplay:10.37,2013-07-23 16:11:00,
2013-07-23 11:16:00,74.5,25.3,29.88,North,0,0.0,0.0,16,0.00,FEW,OVC,0.00,WeatherDisplay:10.37,2013-07-23 16:16:00,
2013-07-23 11:21:00,75.0,28.6,29.88,North,0,0.0,0.0,18,0.00,FEW,OVC,0.00,WeatherDisplay:10.37,2013-07-23 16:21:00,
2013-07-23 11:26:00,75.4,21.1,29.88,North,0,0.0,0.0,13,0.00,FEW,OVC,0.00,WeatherDisplay:10.37,2013-07-23 16:26:00,
2013-07-23 11:31:00,75.2,20.9,29.88,North,0,0.0,0.0,13,0.00,FEW,OVC,0.00,WeatherDisplay:10.37,2013-07-23 16:31:00,
2013-07-23 11:36:00,75.2,24.3,29.88,North,0,0.0,0.0,15,0.00,FEW,OVC,0.00,WeatherDisplay:10.37,2013-07-23 16:36:00,
2013-07-23 11:41:00,75.4,24.5,29.88,North,0,0.0,0.0,15,0.00,FEW,OVC,0.00,WeatherDisplay:10.37,2013-07-23 16:41:00,
2013-07-23 11:46:00,75.9,24.9,29.88,North,0,0.0,0.0,15,0.00,FEW,OVC,0.00,WeatherDisplay:10.37,2013-07-23 16:46:00,
2013-07-23 11:51:00,76.1,21.6,29.88,North,0,0.0,0.0,13,0.00,FEW,OVC,0.00,WeatherDisplay:10.37,2013-07-23 16:51:00,
2013-07-23 11:56:00,75.9,21.5,29.88,North,0,0.0,0.0,13,0.00,FEW,OVC,0.00,WeatherDisplay:10.37,2013-07-23 16:56:00,
2013-07-23 12:01:00,75.9,21.5,29.88,North,0,0.0,0.0,13,0.00,BKN,OVC,0.00,WeatherDisplay:10.37,2013-07-23 17:01:00,
2013-07-23 12:06:00,75.7,21.4,29.88,North,0,0.0,0.0,13,0.00,BKN,OVC,0.00,WeatherDisplay:10.37,2013-07-23 17:06:00,
2013-07-23 12:11:00,75.9,15.4,29.88,North,0,0.0,0.0,10,0.00,BKN,OVC,0.00,WeatherDisplay:10.37,2013-07-23 17:11:00,
2013-07-23 12:16:00,76.1,15.5,29.91,North,0,0.0,0.0,10,0.00,BKN,OVC,0.00,WeatherDisplay:10.37,2013-07-23 17:16:00,
2013-07-23 12:21:00,75.9,15.4,29.91,North,0,0.0,0.0,10,0.00,BKN,OVC,0.00,WeatherDisplay:10.37,2013-07-23 17:21:00,
2013-07-23 12:26:00,76.1,21.6,29.91,North,0,0.0,0.0,13,0.00,BKN,OVC,0.00,WeatherDisplay:10.37,2013-07-23 17:26:00,
2013-07-23 12:31:00,76.1,21.6,29.91,North,0,0.0,0.0,13,0.00,BKN,OVC,0.00,WeatherDisplay:10.37,2013-07-23 17:31:00,
2013-07-23 12:36:00,76.1,21.6,29.91,North,0,0.0,0.0,13,0.00,BKN,OVC,0.00,WeatherDisplay:10.37,2013-07-23 17:36:00,
2013-07-23 12:41:00,75.9,15.4,29.91,North,0,0.0,0.0,10,0.00,BKN,OVC,0.00,WeatherDisplay:10.37,2013-07-23 17:41:00,
2013-07-23 12:46:00,75.9,15.4,29.91,North,0,0.0,0.0,10,0.00,BKN,OVC,0.00,WeatherDisplay:10.37,2013-07-23 17:46:00,
2013-07-23 12:51:00,76.1,15.5,29.91,North,0,0.0,0.0,10,0.00,BKN,OVC,0.00,WeatherDisplay:10.37,2013-07-23 17:51:00,
2013-07-23 12:56:00,76.6,15.9,29.91,North,0,0.0,0.0,10,0.00,BKN,OVC,0.00,WeatherDisplay:10.37,2013-07-23 17:56:00,
2013-07-23 13:01:00,77.0,16.2,29.91,North,0,0.0,0.0,10,0.00,CLR,OVC,0.00,WeatherDisplay:10.37,2013-07-23 18:01:00,
2013-07-23 13:06:00,77.0,16.2,29.91,North,0,0.0,0.0,10,0.00,CLR,OVC,0.00,WeatherDisplay:10.37,2013-07-23 18:06:00,
2013-07-23 13:11:00,77.0,16.2,29.91,North,0,0.0,0.0,10,0.00,CLR,OVC,0.00,WeatherDisplay:10.37,2013-07-23 18:11:00,
2013-07-23 13:16:00,77.0,16.2,29.91,North,0,0.0,0.0,10,0.00,CLR,OVC,0.00,WeatherDisplay:10.37,2013-07-23 18:16:00,
2013-07-23 13:21:00,76.6,15.9,29.91,North,0,0.0,0.0,10,0.00,CLR,OVC,0.00,WeatherDisplay:10.37,2013-07-23 18:21:00,
2013-07-23 13:27:00,76.1,15.5,29.91,North,0,0.0,0.0,10,0.00,CLR,OVC,0.00,WeatherDisplay:10.37,2013-07-23 18:27:00,
2013-07-23 13:32:00,76.1,15.5,29.91,North,0,0.0,0.0,10,0.00,CLR,OVC,0.00,WeatherDisplay:10.37,2013-07-23 18:32:00,
2013-07-23 13:38:00,76.3,15.7,29.91,North,0,0.0,0.0,10,0.00,CLR,OVC,0.00,WeatherDisplay:10.37,2013-07-23 18:38:00,
2013-07-23 13:43:00,75.9,15.4,29.91,North,0,0.0,0.0,10,0.00,CLR,OVC,0.00,WeatherDisplay:10.37,2013-07-23 18:43:00,
2013-07-23 13:48:00,75.7,15.2,29.91,North,0,0.0,0.0,10,0.00,CLR,OVC,0.00,WeatherDisplay:10.37,2013-07-23 18:48:00,
2013-07-23 13:53:00,75.4,15.0,29.91,North,0,0.0,0.0,10,0.00,CLR,OVC,0.00,WeatherDisplay:10.37,2013-07-23 18:53:00,
2013-07-23 13:58:00,75.0,16.9,29.91,North,0,0.0,0.0,11,0.00,CLR,OVC,0.00,WeatherDisplay:10.37,2013-07-23 18:58:00,
2013-07-23 14:03:00,74.7,16.6,29.91,North,0,0.0,0.0,11,0.00,CLR,OVC,0.00,WeatherDisplay:10.37,2013-07-23 19:03:00,
2013-07-23 14:08:00,74.5,16.5,29.91,North,0,0.0,0.0,11,0.00,CLR,OVC,0.00,WeatherDisplay:10.37,2013-07-23 19:08:00,
2013-07-23 14:13:00,74.5,16.5,29.91,North,0,0.0,0.0,11,0.00,CLR,OVC,0.00,WeatherDisplay:10.37,2013-07-23 19:13:00,
2013-07-23 14:19:00,74.3,16.3,29.91,North,0,0.0,0.0,11,0.00,CLR,OVC,0.00,WeatherDisplay:10.37,2013-07-23 19:19:00,
2013-07-23 14:24:00,74.3,16.3,29.91,North,0,0.0,0.0,11,0.00,CLR,OVC,0.00,WeatherDisplay:10.37,2013-07-23 19:24:00,
2013-07-23 14:29:00,74.1,16.2,29.91,North,0,0.0,0.0,11,0.00,CLR,OVC,0.00,WeatherDisplay:10.37,2013-07-23 19:29:00,
2013-07-23 14:34:00,73.8,15.9,29.91,North,0,0.0,0.0,11,0.00,CLR,OVC,0.00,WeatherDisplay:10.37,2013-07-23 19:34:00,
2013-07-23 14:39:00,73.6,15.8,29.91,North,0,0.0,0.0,11,0.00,CLR,OVC,0.00,WeatherDisplay:10.37,2013-07-23 19:39:00,
2013-07-23 14:44:00,73.2,15.5,29.91,North,0,0.0,0.0,11,0.00,CLR,OVC,0.00,WeatherDisplay:10.37,2013-07-23 19:44:00,
2013-07-23 14:49:00,73.2,15.5,29.91,North,0,0.0,0.0,11,0.00,CLR,OVC,0.00,WeatherDisplay:10.37,2013-07-23 19:49:00,
2013-07-23 14:54:00,73.2,15.5,29.91,North,0,0.0,0.0,11,0.00,CLR,OVC,0.00,WeatherDisplay:10.37,2013-07-23 19:54:00,
2013-07-23 14:59:00,73.4,15.6,29.88,North,0,0.0,0.0,11,0.00,CLR,OVC,0.00,WeatherDisplay:10.37,2013-07-23 19:59:00,
2013-07-23 15:04:00,73.8,15.9,29.88,North,0,0.0,0.0,11,0.00,CLR,OVC,0.00,WeatherDisplay:10.37,2013-07-23 20:04:00,
2013-07-23 15:09:00,73.8,15.9,29.88,North,0,0.0,0.0,11,0.00,CLR,OVC,0.00,WeatherDisplay:10.37,2013-07-23 20:09:00,
2013-07-23 15:15:00,73.6,15.8,29.88,North,0,0.0,0.0,11,0.00,CLR,OVC,0.00,WeatherDisplay:10.37,2013-07-23 20:15:00,
2013-07-23 15:20:00,73.4,15.6,29.88,North,0,0.0,0.0,11,0.00,CLR,OVC,0.00,WeatherDisplay:10.37,2013-07-23 20:20:00,
2013-07-23 15:25:00,73.2,15.5,29.88,North,0,0.0,0.0,11,0.00,CLR,OVC,0.00,WeatherDisplay:10.37,2013-07-23 20:25:00,
2013-07-23 15:30:00,73.0,15.4,29.88,North,0,0.0,0.0,11,0.00,CLR,OVC,0.00,WeatherDisplay:10.37,2013-07-23 20:30:00,
2013-07-23 15:35:00,73.0,15.4,29.88,North,0,0.0,0.0,11,0.00,CLR,OVC,0.00,WeatherDisplay:10.37,2013-07-23 20:35:00,
2013-07-23 15:40:00,73.0,21.0,29.88,North,0,0.0,0.0,14,0.00,CLR,OVC,0.00,WeatherDisplay:10.37,2013-07-23 20:40:00,
2013-07-23 15:45:00,73.0,15.4,29.88,North,0,0.0,0.0,11,0.00,CLR,OVC,0.00,WeatherDisplay:10.37,2013-07-23 20:45:00,
2013-07-23 15:50:00,73.4,15.6,29.88,North,0,0.0,0.0,11,0.00,CLR,OVC,0.00,WeatherDisplay:10.37,2013-07-23 20:50:00,
2013-07-23 15:56:00,73.8,15.9,29.88,North,0,0.0,0.0,11,0.00,CLR,OVC,0.00,WeatherDisplay:10.37,2013-07-23 20:56:00,
2013-07-23 16:01:00,74.3,16.3,29.88,North,0,0.0,0.0,11,0.00,CLR,OVC,0.00,WeatherDisplay:10.37,2013-07-23 21:01:00,
2013-07-23 16:06:00,74.8,16.8,29.88,North,0,0.0,0.0,11,0.00,CLR,OVC,0.00,WeatherDisplay:10.37,2013-07-23 21:06:00,
2013-07-23 16:11:00,75.4,15.0,29.88,North,0,0.0,0.0,10,0.00,CLR,OVC,0.00,WeatherDisplay:10.37,2013-07-23 21:11:00,
2013-07-23 16:16:00,76.1,15.5,29.88,North,0,0.0,0.0,10,0.00,CLR,OVC,0.00,WeatherDisplay:10.37,2013-07-23 21:16:00,
2013-07-23 16:21:00,77.0,16.2,29.88,North,0,0.0,0.0,10,0.00,CLR,OVC,0.00,WeatherDisplay:10.37,2013-07-23 21:21:00,
2013-07-23 16:26:00,77.5,16.6,29.88,North,0,0.0,0.0,10,0.00,CLR,OVC,0.00,WeatherDisplay:10.37,2013-07-23 21:26:00,
2013-07-23 16:31:00,77.9,16.9,29.88,North,0,0.0,0.0,10,0.00,CLR,OVC,0.00,WeatherDisplay:10.37,2013-07-23 21:31:00,
2013-07-23 16:36:00,77.5,11.5,29.88,North,0,0.0,0.0,8,0.00,CLR,OVC,0.00,WeatherDisplay:10.37,2013-07-23 21:36:00,
2013-07-23 16:41:00,76.8,11.0,29.88,North,0,0.0,0.0,8,0.00,CLR,OVC,0.00,WeatherDisplay:10.37,2013-07-23 21:41:00,
2013-07-23 16:47:00,76.1,10.4,29.88,North,0,0.0,0.0,8,0.00,CLR,OVC,0.00,WeatherDisplay:10.37,2013-07-23 21:47:00,
2013-07-23 16:52:00,75.7,10.2,29.88,North,0,0.0,0.0,8,0.00,CLR,OVC,0.00,WeatherDisplay:10.37,2013-07-23 21:52:00,
2013-07-23 16:57:00,75.2,9.8,29.88,North,0,0.0,0.0,8,0.00,CLR,OVC,0.00,WeatherDisplay:10.37,2013-07-23 21:57:00,
2013-07-23 17:02:00,75.2,9.8,29.88,North,0,0.0,0.0,8,0.00,CLR,OVC,0.00,WeatherDisplay:10.37,2013-07-23 22:02:00,
2013-07-23 17:08:00,75.0,16.9,29.88,North,0,0.0,0.0,11,0.00,CLR,OVC,0.00,WeatherDisplay:10.37,2013-07-23 22:08:00,
2013-07-23 17:13:00,74.8,9.5,29.88,North,0,0.0,0.0,8,0.00,CLR,OVC,0.00,WeatherDisplay:10.37,2013-07-23 22:13:00,
2013-07-23 17:18:00,74.7,9.4,29.88,North,0,0.0,0.0,8,0.00,CLR,OVC,0.00,WeatherDisplay:10.37,2013-07-23 22:18:00,
2013-07-23 17:23:00,74.3,16.3,29.88,North,0,0.0,0.0,11,0.00,CLR,OVC,0.00,WeatherDisplay:10.37,2013-07-23 22:23:00,
2013-07-23 17:28:00,73.8,15.9,29.88,North,0,0.0,0.0,11,0.00,CLR,OVC,0.00,WeatherDisplay:10.37,2013-07-23 22:28:00,
2013-07-23 17:33:00,73.4,15.6,29.88,North,0,0.0,0.0,11,0.00,CLR,OVC,0.00,WeatherDisplay:10.37,2013-07-23 22:33:00,
2013-07-23 17:39:00,73.0,15.4,29.88,North,0,0.0,0.0,11,0.00,CLR,OVC,0.00,WeatherDisplay:10.37,2013-07-23 22:39:00,
2013-07-23 17:44:00,73.0,15.4,29.88,North,0,0.0,0.0,11,0.00,CLR,OVC,0.00,WeatherDisplay:10.37,2013-07-23 22:44:00,
2013-07-23 17:49:00,73.2,15.5,29.88,North,0,0.0,0.0,11,0.00,CLR,OVC,0.00,WeatherDisplay:10.37,2013-07-23 22:49:00,
2013-07-23 17:54:00,73.0,21.0,29.88,North,0,0.0,0.0,14,0.00,CLR,OVC,0.00,WeatherDisplay:10.37,2013-07-23 22:54:00,
2013-07-23 17:59:00,73.2,21.1,29.85,North,0,0.0,0.0,14,0.00,CLR,OVC,0.00,WeatherDisplay:10.37,2013-07-23 22:59:00,
2013-07-23 18:04:00,73.8,15.9,29.85,North,0,0.0,0.0,11,0.00,CLR,OVC,0.00,WeatherDisplay:10.37,2013-07-23 23:04:00,
2013-07-23 18:09:00,73.9,16.1,29.85,North,0,0.0,0.0,11,0.00,CLR,OVC,0.00,WeatherDisplay:10.37,2013-07-23 23:09:00,
2013-07-23 18:15:00,73.6,15.8,29.88,North,0,0.0,0.0,11,0.00,CLR,OVC,0.00,WeatherDisplay:10.37,2013-07-23 23:15:00,
2013-07-23 18:20:00,73.2,15.5,29.88,North,0,0.0,0.0,11,0.00,CLR,OVC,0.00,WeatherDisplay:10.37,2013-07-23 23:20:00,
2013-07-23 18:25:00,72.7,15.1,29.88,North,0,0.0,0.0,11,0.00,CLR,OVC,0.00,WeatherDisplay:10.37,2013-07-23 23:25:00,
2013-07-23 18:30:00,72.1,14.7,29.88,North,0,0.0,0.0,11,0.00,CLR,OVC,0.00,WeatherDisplay:10.37,2013-07-23 23:30:00,
2013-07-23 18:35:00,71.8,14.4,29.88,North,0,0.0,0.0,11,0.00,CLR,OVC,0.00,WeatherDisplay:10.37,2013-07-23 23:35:00,
2013-07-23 18:40:00,71.8,14.4,29.88,North,0,0.0,0.0,11,0.00,CLR,OVC,0.00,WeatherDisplay:10.37,2013-07-23 23:40:00,
2013-07-23 18:45:00,71.6,19.8,29.88,North,0,0.0,0.0,14,0.00,CLR,OVC,0.00,WeatherDisplay:10.37,2013-07-23 23:45:00,
2013-07-23 18:50:00,71.6,19.8,29.88,North,0,0.0,0.0,14,0.00,CLR,OVC,0.00,WeatherDisplay:10.37,2013-07-23 23:50:00,
2013-07-23 18:55:00,71.6,19.8,29.88,North,0,0.0,0.0,14,0.00,CLR,OVC,0.00,WeatherDisplay:10.37,2013-07-23 23:55:00,
2013-07-23 19:00:00,72.0,14.5,29.88,North,0,0.0,0.0,11,0.00,CLR,OVC,0.00,WeatherDisplay:10.37,2013-07-24 00:00:00,
2013-07-23 19:06:00,72.3,14.8,29.88,North,0,0.0,0.0,11,0.00,CLR,OVC,0.00,WeatherDisplay:10.37,2013-07-24 00:06:00,
2013-07-23 19:11:00,72.5,14.9,29.88,North,0,0.0,0.0,11,0.00,CLR,OVC,0.00,WeatherDisplay:10.37,2013-07-24 00:11:00,
2013-07-23 19:16:00,72.7,15.1,29.85,North,0,0.0,0.0,11,0.00,CLR,OVC,0.00,WeatherDisplay:10.37,2013-07-24 00:16:00,
2013-07-23 19:21:00,72.5,14.9,29.85,North,0,0.0,0.0,11,0.00,CLR,OVC,0.00,WeatherDisplay:10.37,2013-07-24 00:21:00,
2013-07-23 19:27:00,72.1,14.7,29.85,North,0,0.0,0.0,11,0.00,CLR,OVC,0.00,WeatherDisplay:10.37,2013-07-24 00:27:00,
2013-07-23 19:32:00,72.0,14.5,29.88,North,0,0.0,0.0,11,0.00,CLR,OVC,0.00,WeatherDisplay:10.37,2013-07-24 00:32:00,
2013-07-23 19:37:00,71.6,14.2,29.88,North,0,0.0,0.0,11,0.00,CLR,OVC,0.00,WeatherDisplay:10.37,2013-07-24 00:37:00,
2013-07-23 19:42:00,71.4,16.1,29.88,North,0,0.0,0.0,12,0.00,CLR,OVC,0.00,WeatherDisplay:10.37,2013-07-24 00:42:00,
2013-07-23 19:47:00,71.4,16.1,29.88,North,0,0.0,0.0,12,0.00,CLR,OVC,0.00,WeatherDisplay:10.37,2013-07-24 00:47:00,
2013-07-23 19:52:00,71.1,15.8,29.88,North,0,0.0,0.0,12,0.00,CLR,OVC,0.00,WeatherDisplay:10.37,2013-07-24 00:52:00,
2013-07-23 19:58:00,70.7,15.5,29.88,North,0,0.0,0.0,12,0.00,CLR,OVC,0.00,WeatherDisplay:10.37,2013-07-24 00:58:00,
2013-07-23 20:03:00,70.5,19.0,29.88,North,0,0.0,0.0,14,0.00,CLR,OVC,0.00,WeatherDisplay:10.37,2013-07-24 01:03:00,
2013-07-23 20:08:00,70.2,18.7,29.88,North,0,0.0,0.0,14,0.00,CLR,OVC,0.00,WeatherDisplay:10.37,2013-07-24 01:08:00,
2013-07-23 20:13:00,70.0,18.5,29.88,North,0,0.0,0.0,14,0.00,CLR,OVC,0.00,WeatherDisplay:10.37,2013-07-24 01:13:00,
2013-07-23 20:18:00,69.8,18.4,29.88,North,0,0.0,0.0,14,0.00,CLR,OVC,0.00,WeatherDisplay:10.37,2013-07-24 01:18:00,
2013-07-23 20:23:00,69.6,22.8,29.88,North,0,0.0,0.0,17,0.00,CLR,OVC,0.00,WeatherDisplay:10.37,2013-07-24 01:23:00,
2013-07-23 20:28:00,69.4,22.7,29.88,North,0,0.0,0.0,17,0.00,CLR,OVC,0.00,WeatherDisplay:10.37,2013-07-24 01:28:00,
2013-07-23 20:33:00,69.3,22.5,29.88,North,0,0.0,0.0,17,0.00,CLR,OVC,0.00,WeatherDisplay:10.37,2013-07-24 01:33:00,
2013-07-23 20:38:00,69.1,22.4,29.88,North,0,0.0,0.0,17,0.00,CLR,OVC,0.00,WeatherDisplay:10.37,2013-07-24 01:38:00,
2013-07-23 20:43:00,68.9,22.2,29.88,North,0,0.0,0.0,17,0.00,CLR,OVC,0.00,WeatherDisplay:10.37,2013-07-24 01:43:00,
2013-07-23 20:48:00,68.7,22.1,29.88,North,0,0.0,0.0,17,0.00,CLR,OVC,0.00,WeatherDisplay:10.37,2013-07-24 01:48:00,
2013-07-23 20:53:00,68.5,25.8,29.88,North,0,0.0,0.0,20,0.00,CLR,OVC,0.00,WeatherDisplay:10.37,2013-07-24 01:53:00,
2013-07-23 20:59:00,68.4,25.7,29.88,North,0,0.0,0.0,20,0.00,CLR,OVC,0.00,WeatherDisplay:10.37,2013-07-24 01:59:00,
2013-07-23 21:04:00,68.4,28.0,29.88,North,0,0.0,0.0,22,0.00,CLR,OVC,0.00,WeatherDisplay:10.37,2013-07-24 02:04:00,
2013-07-23 21:09:00,68.2,27.9,29.88,North,0,0.0,0.0,22,0.00,CLR,OVC,0.00,WeatherDisplay:10.37,2013-07-24 02:09:00,
2013-07-23 21:14:00,68.2,27.9,29.91,North,0,0.0,0.0,22,0.00,CLR,OVC,0.00,WeatherDisplay:10.37,2013-07-24 02:14:00,
2013-07-23 21:19:00,68.2,25.5,29.91,North,0,0.0,0.0,20,0.00,CLR,OVC,0.00,WeatherDisplay:10.37,2013-07-24 02:19:00,
2013-07-23 21:24:00,68.0,25.4,29.91,North,0,0.0,0.0,20,0.00,CLR,OVC,0.00,WeatherDisplay:10.37,2013-07-24 02:24:00,
2013-07-23 21:29:00,67.8,25.2,29.91,North,0,0.0,0.0,20,0.00,CLR,OVC,0.00,WeatherDisplay:10.37,2013-07-24 02:29:00,
2013-07-23 21:34:00,67.8,25.2,29.91,North,0,0.0,0.0,20,0.00,CLR,OVC,0.00,WeatherDisplay:10.37,2013-07-24 02:34:00,
2013-07-23 21:39:00,67.8,25.2,29.91,North,0,0.0,0.0,20,0.00,CLR,OVC,0.00,WeatherDisplay:10.37,2013-07-24 02:39:00,
2013-07-23 21:44:00,67.8,25.2,29.91,North,0,0.0,0.0,20,0.00,CLR,OVC,0.00,WeatherDisplay:10.37,2013-07-24 02:44:00,
2013-07-23 21:49:00,67.8,27.6,29.91,North,0,0.0,0.0,22,0.00,CLR,OVC,0.00,WeatherDisplay:10.37,2013-07-24 02:49:00,
2013-07-23 21:54:00,67.8,27.6,29.91,North,0,0.0,0.0,22,0.00,CLR,OVC,0.00,WeatherDisplay:10.37,2013-07-24 02:54:00,
2013-07-23 21:59:00,67.8,27.6,29.91,North,0,0.0,0.0,22,0.00,CLR,OVC,0.00,WeatherDisplay:10.37,2013-07-24 02:59:00,
2013-07-23 22:05:00,67.8,28.6,29.91,North,0,0.0,0.0,23,0.00,CLR,OVC,0.00,WeatherDisplay:10.37,2013-07-24 03:05:00,
2013-07-23 22:10:00,67.8,28.6,29.91,North,0,0.0,0.0,23,0.00,CLR,OVC,0.00,WeatherDisplay:10.37,2013-07-24 03:10:00,
2013-07-23 22:15:00,67.8,28.6,29.94,North,0,0.0,0.0,23,0.00,CLR,OVC,0.00,WeatherDisplay:10.37,2013-07-24 03:15:00,
2013-07-23 22:20:00,67.6,28.5,29.94,North,0,0.0,0.0,23,0.00,CLR,OVC,0.00,WeatherDisplay:10.37,2013-07-24 03:20:00,
2013-07-23 22:25:00,67.6,28.5,29.94,North,0,0.0,0.0,23,0.00,CLR,OVC,0.00,WeatherDisplay:10.37,2013-07-24 03:25:00,
2013-07-23 22:30:00,67.5,28.3,29.94,North,0,0.0,0.0,23,0.00,CLR,OVC,0.00,WeatherDisplay:10.37,2013-07-24 03:30:00,
2013-07-23 22:35:00,67.3,28.2,29.94,North,0,0.0,0.0,23,0.00,CLR,OVC,0.00,WeatherDisplay:10.37,2013-07-24 03:35:00,
2013-07-23 22:40:00,67.3,29.2,29.94,North,0,0.0,0.0,24,0.00,CLR,OVC,0.00,WeatherDisplay:10.37,2013-07-24 03:40:00,
2013-07-23 22:45:00,67.1,29.1,29.94,North,0,0.0,0.0,24,0.00,CLR,OVC,0.00,WeatherDisplay:10.37,2013-07-24 03:45:00,
2013-07-23 22:50:00,66.9,28.9,29.94,North,0,0.0,0.0,24,0.00,CLR,OVC,0.00,WeatherDisplay:10.37,2013-07-24 03:50:00,
2013-07-23 22:55:00,66.9,27.9,29.94,North,0,0.0,0.0,23,0.00,CLR,OVC,0.00,WeatherDisplay:10.37,2013-07-24 03:55:00,
2013-07-23 23:00:00,66.9,27.9,29.94,North,0,0.0,0.0,23,0.00,CLR,OVC,0.00,WeatherDisplay:10.37,2013-07-24 04:00:00,
2013-07-23 23:01:00,66.9,27.9,29.94,North,0,0.0,0.0,23,0.00,CLR,OVC,0.00,WeatherDisplay:10.37,2013-07-24 04:01:00,
2013-07-23 23:02:00,66.9,27.9,29.94,North,0,0.0,0.0,23,0.00,CLR,OVC,0.00,WeatherDisplay:10.37,2013-07-24 04:02:00,
2013-07-23 23:03:00,66.9,27.9,29.94,North,0,0.0,0.0,23,0.00,CLR,OVC,0.00,WeatherDisplay:10.37,2013-07-24 04:03:00,
2013-07-23 23:05:00,66.9,27.9,29.94,North,0,0.0,0.0,23,0.00,CLR,OVC,0.00,WeatherDisplay:10.37,2013-07-24 04:05:00,
2013-07-23 23:10:00,66.7,27.7,29.94,North,0,0.0,0.0,23,0.00,CLR,OVC,0.00,WeatherDisplay:10.37,2013-07-24 04:10:00,
2013-07-23 23:15:00,66.6,27.6,29.94,North,0,0.0,0.0,23,0.00,CLR,OVC,0.00,WeatherDisplay:10.37,2013-07-24 04:15:00,
2013-07-23 23:20:00,66.4,27.4,29.94,North,0,0.0,0.0,23,0.00,CLR,OVC,0.00,WeatherDisplay:10.37,2013-07-24 04:20:00,
2013-07-23 23:25:00,66.4,26.3,29.94,North,0,0.0,0.0,22,0.00,CLR,OVC,0.00,WeatherDisplay:10.37,2013-07-24 04:25:00,
2013-07-23 23:30:00,66.4,24.1,29.97,North,0,0.0,0.0,20,0.00,CLR,OVC,0.00,WeatherDisplay:10.37,2013-07-24 04:30:00,
2013-07-23 23:35:00,66.4,24.1,29.97,North,0,0.0,0.0,20,0.00,CLR,OVC,0.00,WeatherDisplay:10.37,2013-07-24 04:35:00,
2013-07-23 23:40:00,66.2,23.9,29.97,North,0,0.0,0.0,20,0.00,CLR,OVC,0.00,WeatherDisplay:10.37,2013-07-24 04:40:00,
2013-07-23 23:45:00,66.0,23.8,29.97,North,0,0.0,0.0,20,0.00,CLR,OVC,0.00,WeatherDisplay:10.37,2013-07-24 04:45:00,
2013-07-23 23:50:00,65.8,23.6,29.97,North,0,0.0,0.0,20,0.00,CLR,OVC,0.00,WeatherDisplay:10.37,2013-07-24 04:50:00,
2013-07-23 23:55:00,65.8,23.6,29.97,North,0,0.0,0.0,20,0.00,CLR,OVC,0.00,WeatherDisplay:10.37,2013-07-24 04:55:00,